Theta_e
329 324 325 320 306 307 302 305 312 311 313 319 323 321 320 322 320 317 334 336 351 347 350 355 360 360 359 358 357 356 358 359 361 361 360 359 358 356 355 352 349 345 343 340 338 335 334 335 335
323 320 320 314 303 300 303 310 309 312 317 320 323 323 322 322 330 330 329 336 354 351 350 351 359 359 359 358 357 356 356 356 358 358 358 358 356 354 351 350 346 343 340 337 336 335 336 336 336
329 329 313 308 304 301 303 312 312 315 317 322 320 325 323 325 332 332 336 338 354 352 348 352 358 358 359 358 357 355 355 355 355 356 356 355 354 353 351 348 346 341 339 339 338 337 337 336 337
324 319 312 304 303 307 309 312 315 314 316 321 321 319 326 334 332 335 338 339 347 348 346 356 357 357 358 357 356 355 354 353 353 353 353 353 352 351 348 347 346 344 342 341 340 341 340 339 340
320 313 304 302 304 309 313 315 315 313 314 317 320 319 323 331 337 336 336 337 340 344 346 354 356 357 358 357 356 355 353 352 351 352 351 350 350 349 347 347 346 345 346 343 343 344 344 343 343
310 309 300 300 303 308 312 314 314 313 315 317 320 320 323 333 334 335 334 337 338 343 350 354 356 356 356 356 354 353 352 352 351 351 351 349 349 349 348 347 347 346 347 347 347 346 346 346 346
311 307 300 301 302 305 310 316 313 313 313 314 320 317 325 331 335 337 334 337 338 344 354 355 353 355 356 355 354 353 352 351 351 350 350 349 349 348 348 347 347 347 347 348 348 348 347 347 347
315 310 305 304 302 303 310 312 314 313 312 319 321 316 321 334 338 336 333 333 336 340 354 355 354 349 351 352 355 354 352 352 351 350 350 349 349 349 349 346 347 348 348 348 348 348 348 348 348
318 307 303 304 305 306 312 310 313 315 313 315 319 321 328 334 336 334 331 331 333 337 346 353 352 349 345 345 350 354 353 352 352 351 351 348 344 343 343 345 344 348 348 348 348 348 348 349 349
310 307 307 311 311 310 312 312 311 311 312 314 317 323 328 330 333 332 329 328 331 334 338 343 350 348 344 341 346 349 348 349 348 345 345 345 341 340 339 342 345 348 348 349 348 349 349 347 343
311 306 311 312 314 315 313 312 314 311 309 313 315 320 326 327 333 333 331 329 331 335 337 342 355 350 345 342 348 348 346 346 345 345 343 344 340 339 339 337 340 341 346 341 345 344 345 342 341
306 311 313 313 315 314 313 316 312 313 313 317 317 323 326 326 328 330 331 331 334 335 337 348 351 354 354 349 347 350 349 347 345 345 345 343 342 339 337 337 339 337 339 341 340 339 340 340 342
303 307 311 314 315 314 315 313 314 313 317 319 318 319 324 327 328 331 332 335 335 334 338 344 350 353 356 358 354 349 348 350 349 348 347 344 343 340 341 340 337 341 340 341 338 339 340 341 342
307 306 307 310 311 313 312 312 314 316 319 318 319 319 319 324 326 329 332 335 340 344 358 348 353 356 357 354 356 361 362 355 355 352 351 348 344 346 342 341 343 340 343 341 340 340 339 343 344
305 302 304 306 308 309 312 308 309 316 318 317 318 319 321 321 323 325 331 338 341 341 351 351 354 362 360 359 360 358 356 355 351 354 359 351 349 346 347 344 341 344 344 346 345 343 342 345 345
298 300 296 304 305 307 308 302 312 316 315 315 317 319 320 323 323 326 331 340 343 343 347 351 341 362 364 362 361 358 356 354 353 352 356 357 351 352 351 346 346 345 347 342 342 340 340 340 338
296 290 293 297 305 305 305 302 310 315 315 314 315 318 320 321 325 329 331 334 340 347 348 349 348 350 359 360 356 356 354 355 355 355 352 355 356 351 353 349 348 353 345 343 342 339 341 336 337
291 293 294 294 299 301 301 303 308 312 312 313 316 316 317 321 323 327 332 333 341 347 351 351 353 354 359 355 360 353 352 350 353 353 352 356 353 353 351 351 348 352 346 343 341 341 340 337 341
297 295 294 297 300 299 298 301 305 310 311 311 314 317 315 317 324 327 328 333 337 346 350 351 352 354 354 354 347 345 342 346 350 352 356 357 354 352 353 349 351 350 345 344 345 343 338 339 341
296 293 293 296 299 298 298 297 302 308 309 312 313 314 316 320 319 325 330 341 342 346 347 349 349 349 352 353 350 351 351 348 349 353 355 357 354 353 352 349 349 349 346 346 345 339 337 339 340
294 293 293 293 296 298 296 294 299 304 308 311 313 316 317 317 320 324 326 336 340 339 340 340 344 348 350 350 353 351 355 357 353 352 354 355 354 353 352 350 351 348 347 342 342 343 341 335 337
290 296 295 294 292 287 296 287 297 301 303 307 310 313 316 317 319 322 326 328 335 338 340 342 345 345 349 353 346 346 344 343 350 352 352 352 354 351 351 349 349 347 345 341 341 345 342 338 332
293 298 295 294 291 290 291 288 292 299 300 305 309 311 315 318 318 319 322 325 330 333 335 339 345 345 345 348 347 344 348 348 355 353 353 351 352 351 348 349 351 347 346 347 345 343 341 340 334
299 295 294 293 291 284 288 288 289 294 299 304 309 311 314 316 318 320 323 327 325 327 329 333 334 341 345 349 349 352 348 349 347 349 348 349 348 346 347 347 349 349 349 346 345 343 342 338 335
296 291 284 282 282 282 291 288 291 298 301 303 307 311 313 316 316 318 319 321 325 326 326 327 339 339 345 347 351 348 354 350 356 351 347 347 344 344 346 346 348 349 349 346 344 344 340 338 335
293 291 284 277 279 282 290 284 290 301 303 305 309 311 313 314 317 318 320 321 320 323 327 328 334 338 343 346 349 350 354 351 355 350 349 347 345 345 348 349 348 347 347 345 345 343 339 339 337
293 288 294 287 288 283 286 290 296 301 302 305 306 309 312 314 318 318 320 327 327 330 339 333 333 336 338 346 350 351 352 354 351 353 356 349 348 348 349 348 346 346 344 344 342 338 339 338 336
294 296 287 288 279 277 284 286 288 294 299 304 306 307 312 315 314 318 321 326 336 337 339 338 338 336 346 348 350 351 352 354 355 354 350 349 348 346 346 346 345 344 343 342 340 339 338 336 336
292 290 290 291 287 280 279 285 297 298 301 301 306 308 312 313 314 316 320 331 333 335 334 336 341 345 346 349 351 351 352 351 349 349 348 349 348 345 344 343 342 340 341 340 338 337 336 335 334
295 291 293 285 284 287 285 285 300 301 301 300 299 310 312 313 314 315 329 331 331 333 332 337 341 343 347 349 349 350 349 348 347 346 347 346 345 343 342 340 338 337 337 338 336 334 334 332 332
Wind_Speed
10 11 10 11 7 8 15 18 20 19 6 5 11 7 4 15 12 6 18 14 24 20 18 19 20 19 18 16 14 12 11 10 10 10 11 11 11 10 10 9 8 8 7 6 5 5 5 4 4
9 13 10 7 9 12 14 19 21 17 3 3 6 2 8 6 17 16 12 19 21 18 16 16 19 18 18 17 15 13 12 11 10 10 11 11 11 11 10 9 10 9 8 7 7 6 6 5 5
12 16 8 6 13 16 17 18 14 13 7 5 2 10 9 4 8 17 14 21 20 15 16 15 20 19 17 17 16 14 13 12 11 11 11 11 11 11 11 11 10 10 10 9 8 6 5 5 4
9 7 7 11 19 19 25 22 14 12 13 7 8 7 4 2 4 14 19 19 17 18 16 19 19 18 18 17 17 15 14 13 12 11 11 12 12 11 11 11 11 10 11 10 10 9 8 6 5
9 8 11 14 19 20 23 21 14 9 14 10 11 13 5 12 15 18 19 19 17 17 15 18 21 18 18 17 16 16 15 14 13 13 13 13 13 12 12 12 12 12 11 11 11 9 7 6 5
5 5 12 15 20 21 18 18 19 9 17 9 10 10 11 17 15 17 16 17 17 17 16 15 20 18 16 16 16 16 15 15 15 14 14 14 13 14 14 13 13 12 12 11 10 9 8 7 6
15 11 14 17 19 24 19 12 12 10 14 16 13 11 5 13 14 15 16 16 16 18 16 14 14 15 15 14 14 15 15 16 15 15 15 15 15 14 14 14 13 12 12 11 11 10 9 8 7
11 12 21 18 15 21 19 21 16 14 16 14 18 7 5 12 6 10 18 16 16 17 16 15 13 14 12 11 14 15 16 16 16 16 16 15 14 14 14 13 13 13 13 12 11 11 10 9 8
19 15 16 21 21 17 13 18 16 20 21 19 14 5 6 6 4 10 15 16 13 15 17 16 14 13 12 12 13 14 16 16 16 15 16 12 8 10 13 13 14 15 14 13 12 12 10 9 9
18 17 24 20 18 16 18 12 11 18 23 14 13 9 5 4 9 10 11 14 14 16 16 14 15 15 14 11 11 12 11 9 10 10 11 9 10 8 12 13 17 16 15 13 12 12 10 10 7
21 23 23 22 22 19 21 14 15 19 20 20 14 16 11 10 9 12 14 13 16 15 12 16 11 15 14 9 8 7 7 8 8 13 11 10 8 8 8 6 8 7 13 7 9 8 7 9 8
27 28 24 26 24 23 25 16 17 20 21 24 20 17 16 14 6 7 9 10 6 10 11 16 14 12 10 7 8 9 9 9 9 11 13 9 8 8 8 7 7 9 7 10 8 7 10 12 12
30 27 27 25 24 26 26 25 21 21 21 23 24 22 10 11 12 8 8 6 8 8 11 18 16 12 9 6 5 7 8 9 10 9 13 12 11 10 8 6 8 9 9 10 9 8 10 12 13
22 27 29 28 28 25 26 26 23 26 20 22 23 22 21 18 17 11 10 7 6 5 2 8 14 12 12 9 6 4 4 4 7 8 11 17 11 8 9 8 7 8 9 10 11 10 9 8 8
20 26 26 27 26 28 25 26 31 22 17 22 23 21 21 19 15 14 14 9 7 6 5 4 12 13 12 11 8 6 5 5 6 5 8 16 14 11 9 8 9 6 5 5 7 9 8 4 3
21 23 20 23 28 30 25 28 29 22 19 21 23 21 21 21 18 14 14 8 9 7 5 5 4 15 13 10 9 8 8 7 6 6 5 12 15 10 9 8 6 8 5 5 4 3 3 3 4
16 20 24 28 26 23 28 32 28 23 21 23 20 20 20 21 20 18 18 10 9 9 6 4 5 6 10 8 8 7 7 5 5 5 6 9 13 15 8 7 6 6 6 5 4 4 3 3 4
17 20 23 26 24 26 27 28 29 26 26 22 21 21 22 21 22 18 15 13 9 9 8 6 3 5 4 3 3 4 4 5 5 5 6 6 9 13 11 6 7 5 4 4 3 4 4 4 4
21 22 27 26 26 28 24 25 29 23 25 24 20 18 24 24 23 19 21 17 13 11 11 9 8 6 3 3 4 4 6 5 5 5 6 6 8 10 10 9 7 7 5 5 5 4 4 3 2
21 24 27 26 23 22 25 30 31 23 25 23 24 22 22 20 24 17 10 5 8 9 10 9 8 6 6 3 3 3 4 6 6 5 5 6 9 9 9 9 7 8 4 6 5 5 3 3 4
21 21 22 25 22 24 26 30 29 28 25 21 21 24 23 25 20 17 13 8 9 10 11 10 9 9 8 9 4 4 5 3 4 5 5 6 8 8 9 10 6 8 5 5 4 5 6 4 2
19 20 24 23 21 19 20 20 22 22 25 23 24 21 21 21 22 18 12 11 9 8 8 8 9 9 9 8 7 8 6 6 4 4 7 7 7 9 10 9 9 8 6 7 7 5 4 4 3
24 21 19 21 21 23 23 18 21 23 23 25 22 26 18 20 22 23 20 18 9 8 9 9 9 12 13 11 10 8 7 5 3 4 10 8 7 7 10 10 7 7 6 6 8 7 5 3 2
28 19 18 21 18 19 26 23 24 20 24 24 24 22 24 22 19 23 20 11 14 16 11 11 13 15 15 12 12 8 10 8 7 7 9 8 7 5 8 8 6 7 5 6 5 5 6 4 3
16 9 12 16 15 18 24 24 19 24 24 32 29 14 22 22 23 19 19 16 10 10 12 12 13 15 14 13 12 11 9 12 7 12 10 10 7 4 7 7 7 6 4 6 5 5 3 4 4
16 13 9 13 18 19 22 14 17 27 24 31 25 17 17 14 13 13 7 7 14 16 15 12 9 13 13 13 13 11 9 7 7 10 9 9 9 9 9 9 8 8 6 6 5 3 4 3 3
17 16 15 22 17 12 20 23 20 23 24 27 23 23 9 2 4 5 8 6 8 7 5 11 10 11 12 13 11 11 11 9 10 9 8 10 11 10 11 9 7 6 6 6 6 4 4 4 4
17 17 16 9 10 15 16 19 13 19 16 22 24 23 14 6 2 7 9 8 4 7 7 8 9 13 13 13 12 11 10 9 10 8 9 8 10 11 9 7 7 6 6 6 6 4 5 6 4
12 15 8 13 6 8 13 13 7 20 22 26 18 25 11 8 7 9 10 1 7 11 15 9 10 12 12 13 12 12 11 11 10 8 7 8 8 10 9 8 8 7 6 6 6 4 7 6 6
9 11 14 4 6 8 10 21 10 14 24 26 43 8 11 5 4 6 7 3 10 15 10 10 10 13 13 13 12 12 12 12 10 8 8 8 6 7 6 7 7 7 7 6 6 7 7 6 6
Wind_Direction
253 254 263 266 245 230 256 242 261 273 259 31 46 3 317 285 72 55 133 149 123 134 145 157 156 158 155 153 154 156 145 146 149 147 148 149 149 150 149 144 150 158 160 162 160 158 154 142 123
241 238 249 277 241 243 245 230 238 245 329 270 85 211 276 261 104 138 125 124 125 135 144 156 160 159 156 157 158 157 151 150 158 157 158 161 162 162 162 161 167 176 175 177 179 178 173 168 155
259 257 254 228 235 248 262 251 238 208 184 110 167 225 227 255 67 135 118 125 124 135 148 154 158 160 162 159 158 158 157 155 164 164 168 175 171 175 173 175 178 183 181 184 186 189 192 192 179
239 217 250 261 256 246 250 283 327 321 183 165 229 227 206 70 184 133 127 129 137 144 154 145 157 162 163 164 163 159 160 163 168 169 178 182 180 179 175 181 182 187 190 190 193 195 200 201 209
258 275 235 247 247 260 280 294 312 296 281 168 228 239 209 178 87 133 148 150 151 147 155 149 156 165 168 167 164 162 166 168 172 176 185 189 185 182 181 187 187 190 195 198 201 200 206 207 225
216 226 260 249 248 252 261 268 287 270 282 251 222 225 235 167 155 149 160 153 160 145 134 147 157 165 171 167 170 169 170 175 179 184 191 191 193 191 188 193 194 197 201 205 204 204 206 211 226
248 242 242 256 281 295 288 266 251 255 255 276 286 272 239 150 163 161 166 161 159 142 126 141 160 164 168 172 173 175 176 181 186 188 195 194 197 199 196 197 199 204 211 210 211 210 212 217 223
233 265 269 264 254 256 286 309 317 287 275 255 244 254 258 20 121 150 165 174 158 143 131 140 156 170 169 176 182 183 183 187 191 194 198 198 201 204 205 202 203 207 215 215 216 219 217 220 223
263 248 249 254 262 270 262 283 293 308 292 266 272 257 48 23 283 189 175 173 167 155 149 147 159 165 175 182 184 187 194 195 196 199 203 197 203 206 214 210 211 209 217 216 218 225 224 227 232
237 246 242 246 262 278 279 293 272 270 276 261 256 238 92 265 256 232 191 183 180 156 160 160 155 161 175 188 178 183 192 200 201 204 200 203 210 213 209 207 212 207 214 217 220 226 226 230 239
229 243 253 254 260 255 271 281 288 278 274 270 218 258 190 231 222 233 203 209 184 166 169 163 148 161 172 191 151 178 188 199 203 205 201 195 213 219 215 208 195 200 211 210 209 220 227 224 225
245 244 241 256 268 282 280 276 257 277 280 289 295 234 201 192 221 260 277 215 209 179 182 141 146 149 169 174 170 178 190 194 202 201 196 195 200 212 219 203 198 191 201 203 215 207 209 221 232
256 253 252 252 243 251 271 268 262 253 265 277 283 287 250 160 184 235 271 289 232 211 192 155 151 155 162 183 191 196 198 197 197 194 190 195 203 209 201 219 201 187 198 191 207 219 210 213 223
266 263 264 258 251 248 241 256 267 250 254 269 273 279 283 207 212 209 240 259 280 294 312 122 158 159 160 175 212 239 201 217 198 190 189 196 198 198 209 195 222 216 194 205 194 209 220 209 209
270 281 274 265 265 258 248 247 239 257 253 261 264 269 271 273 246 226 224 198 227 266 268 128 142 156 163 171 186 218 233 219 224 224 183 187 193 202 196 211 200 220 226 238 193 198 212 203 200
278 274 272 254 251 260 262 259 246 239 239 246 253 258 268 269 255 249 227 201 188 204 246 162 192 161 171 172 189 206 208 211 223 205 212 176 189 192 206 205 201 200 218 213 205 204 216 184 207
242 259 262 266 260 255 242 253 254 247 240 231 242 255 250 254 254 233 235 214 190 183 187 170 174 156 166 186 192 203 215 224 219 204 216 190 178 189 192 211 214 190 202 208 187 191 183 197 236
265 255 247 252 257 264 267 247 250 247 249 240 231 231 255 253 241 250 225 224 188 159 156 168 202 192 200 200 187 217 212 215 214 216 203 204 183 173 188 218 207 208 192 201 189 174 200 201 179
285 280 274 275 288 296 291 269 264 245 241 239 232 241 227 252 261 227 234 219 192 164 154 167 181 220 212 190 207 225 220 221 202 207 214 182 168 174 177 206 207 204 188 195 186 177 186 216 213
280 281 281 287 294 293 289 282 277 270 254 239 229 220 248 240 245 246 249 217 162 158 162 170 188 206 224 197 214 231 224 219 186 180 200 158 163 176 187 195 216 185 183 184 200 167 180 194 194
278 276 278 286 296 290 283 280 278 271 277 271 258 218 217 244 258 218 219 194 175 167 172 180 189 198 208 223 200 218 236 248 155 174 158 155 165 184 190 195 236 167 193 175 181 177 182 202 139
276 279 277 278 281 276 278 279 263 268 260 263 270 268 215 221 252 256 250 244 208 171 168 185 193 196 208 202 203 215 204 203 197 163 154 156 176 194 178 187 226 162 194 171 182 169 185 196 165
285 282 279 284 284 285 269 263 270 269 261 250 237 256 252 214 224 246 243 232 229 221 194 194 197 196 206 195 197 215 208 209 165 173 151 155 177 185 175 196 181 167 195 157 165 174 160 146 186
287 278 282 284 274 260 268 258 263 260 269 265 247 237 240 242 224 227 236 224 234 236 211 206 207 203 201 189 193 212 194 216 180 174 145 156 167 174 184 182 167 171 195 146 152 133 141 181 183
274 284 284 265 253 265 261 254 256 263 257 262 268 263 233 228 226 234 235 231 227 227 237 238 194 194 183 184 182 202 197 210 196 147 154 159 154 165 172 170 169 164 189 142 147 132 179 182 198
293 295 266 273 281 281 299 285 288 296 273 265 272 279 274 284 227 223 229 255 247 233 217 211 196 181 178 182 184 194 196 194 160 154 159 152 165 174 183 174 173 173 166 142 116 148 182 155 193
307 278 293 291 299 301 285 271 280 268 263 260 253 261 237 236 91 201 232 260 252 256 251 182 183 171 183 186 174 187 190 182 156 163 162 157 172 175 168 164 165 162 156 135 145 176 164 172 196
265 289 284 280 279 293 283 281 248 272 269 266 254 242 237 152 171 249 247 236 314 307 288 164 163 178 177 169 172 179 165 164 149 151 151 125 124 142 154 163 157 161 139 144 169 156 175 177 183
298 276 268 280 230 264 287 276 11 357 345 333 264 230 178 148 219 218 237 78 257 254 254 157 166 157 162 163 167 158 173 127 124 137 121 109 114 137 159 167 153 150 158 148 159 191 191 169 146
211 351 347 310 284 279 295 266 31 359 356 348 339 126 148 145 347 280 101 234 240 234 153 150 166 156 162 159 158 154 127 130 135 129 122 121 129 138 162 171 132 126 142 146 166 209 182 155 150